Kirksville, MO

11:54 AM CDT on June 29, 2017 (GMT -0500)
Kirksville Regional

Weather History for KIRK - October, 2015

Change the Weather History Date:

Wednesday, October 21, 2015

  Actual Average Record
Temperature  
Mean Temperature 71 °F 51 °F  
Max Temperature 83 °F 62 °F 84 °F (1978)
Min Temperature 58 °F 41 °F 22 °F (1930)
Degree Days  
Heating Degree Days 0 14  
Month to date heating degree days 163 224  
Since 1 July heating degree days 216 331  
Cooling Degree Days 6 0  
Month to date cooling degree days 18 10  
Year to date cooling degree days 1102 937  
Growing Degree Days 21 (Base 50)    
Moisture  
Dew Point 51 °F    
Average Humidity 61    
Maximum Humidity 84    
Minimum Humidity 37    
Precipitation  
Precipitation 0.00 in 0.11 in 1.33 in (1941)
Month to date precipitation 0.09 2.34  
Year to date precipitation 32.92 33.86  
Sea Level Pressure  
Sea Level Pressure 30.11 in    
Wind  
Wind Speed 9 mph (SW)    
Max Wind Speed 17 mph    
Max Gust Speed 24 mph    
Visibility 10 miles    
Events      
T = Trace of Precipitation, MM = Missing Value Source: NWS Daily Summary

Daily Weather History Graph

Daily Weather History Graph

Search for Another Location

Airport or City:

Trip Planner

Search our weather history database for the weather conditions in past years. The results will help you decide how hot, cold, wet, or windy it might be!

Date:

Astronomy

Oct. 21, 2015 Rise Set
Actual Time 7:26 AM CDT 6:22 PM CDT
Civil Twilight 6:59 AM CDT 6:49 PM CDT
Nautical Twilight 6:27 AM CDT 7:21 PM CDT
Astronomical Twilight 5:56 AM CDT 7:52 PM CDT
Moon 2:46 PM CDT (10/21) 12:32 AM CDT (10/21)
Length of Visible Light 11h 50m
Length of Day
10h 55m
First Quarter, 59% of the Moon is Illuminated
Oct 21
First Quarter
Oct 27
Full
Nov 3
Last Quarter
Nov 11
New
Nov 19
First Quarter

Hourly Weather History & Observations

Time (CDT) Temp. Heat Index Dew Point Humidity Pressure Visibility Wind Dir Wind Speed Gust Speed Precip Events Conditions
12:55 AM 63.0 °F - 46.9 °F 56% 30.05 in 10.0 mi SSW 8.1 mph - N/A   Clear
1:55 AM 63.0 °F - 46.9 °F 56% 30.05 in 10.0 mi South 8.1 mph - N/A   Clear
2:55 AM 60.1 °F - 46.0 °F 60% 30.05 in 10.0 mi South 8.1 mph - N/A   Clear
3:55 AM 62.1 °F - 46.0 °F 56% 30.06 in 10.0 mi South 10.4 mph - N/A   Clear
4:55 AM 63.0 °F - 46.0 °F 54% 30.07 in 10.0 mi South 10.4 mph - N/A   Clear
5:55 AM 62.1 °F - 46.0 °F 56% 30.09 in 10.0 mi South 9.2 mph - N/A   Clear
6:55 AM 61.0 °F - 46.9 °F 60% 30.11 in 10.0 mi South 9.2 mph - N/A   Clear
7:55 AM 62.1 °F - 48.0 °F 60% 30.12 in 10.0 mi SSW 10.4 mph - N/A   Overcast
8:55 AM 64.0 °F - 48.9 °F 58% 30.13 in 10.0 mi SSW 12.7 mph - N/A   Mostly Cloudy
9:55 AM 66.9 °F - 50.0 °F 54% 30.14 in 10.0 mi SSW 15.0 mph - N/A   Clear
10:55 AM 73.0 °F - 52.0 °F 48% 30.14 in 10.0 mi SW 11.5 mph - N/A   Clear
11:55 AM 75.9 °F - 52.0 °F 43% 30.14 in 10.0 mi West 13.8 mph 19.6 mph N/A   Partly Cloudy
12:55 PM 75.9 °F - 53.1 °F 45% 30.13 in 10.0 mi WSW 10.4 mph - N/A   Clear
1:55 PM 78.1 °F - 54.0 °F 43% 30.10 in 10.0 mi SSW 10.4 mph - N/A   Clear
2:55 PM 81.0 °F 80.5 °F 54.0 °F 39% 30.08 in 10.0 mi SW 10.4 mph - N/A   Clear
3:55 PM 82.0 °F 81.3 °F 54.0 °F 38% 30.08 in 10.0 mi SW 11.5 mph - N/A   Clear
4:55 PM 81.0 °F 80.5 °F 54.0 °F 39% 30.08 in 10.0 mi SW 8.1 mph - N/A   Clear
5:55 PM 78.1 °F - 55.0 °F 45% 30.09 in 10.0 mi WSW 5.8 mph - N/A   Clear
6:55 PM 69.1 °F - 55.0 °F 61% 30.12 in 10.0 mi West 4.6 mph - N/A   Clear
7:55 PM 66.0 °F - 55.0 °F 68% 30.14 in 10.0 mi WNW 3.5 mph - N/A   Clear
8:55 PM 66.9 °F - 55.0 °F 66% 30.15 in 10.0 mi NW 4.6 mph - N/A   Mostly Cloudy
9:55 PM 64.9 °F - 57.0 °F 75% 30.17 in 10.0 mi North 6.9 mph - N/A   Clear
10:55 PM 63.0 °F - 55.9 °F 78% 30.18 in 10.0 mi NNE 8.1 mph - N/A   Partly Cloudy
11:55 PM 60.1 °F - 55.0 °F 83% 30.19 in 10.0 mi North 5.8 mph - N/A   Clear